568  
ASUS42 KMHX 311422  
RWRMHX  
WEATHER ROUNDUP FOR EASTERN NORTH CAROLINA  
NATIONAL WEATHER SERVICE NEWPORT/MOREHEAD CITY NC  
900 AM EST SAT JAN 31 2015  
 
NOTE: "FAIR" INDICATES FEW OR NO CLOUDS BELOW 12,000 FEET  
WITH NO SIGNIFICANT WEATHER AND/OR S TO VISIBILITY
 
 
NCZ015>017-031-032-045>047-102-103-311500-  
NORTH COAST  
 
CITY SKY/WX TMP DP RH WIND PRES REMARKS
 
EDENTON SUNNY 30 12 47 N18G24 30.35R WCI 18  
ELIZABETH CITY SUNNY 27 10 49 NW15G21 30.34R WCI 15  
KITTY HAWK SUNNY 28 9 45 NW10G24 30.29R WCI 19  
MANTEO SUNNY 28 9 43 NW18G30 30.31S WCI 16  
 

 
 
NCZ045>047-081-094-103-104-311500-  
CENTRAL COAST  
 
CITY SKY/WX TMP DP RH WIND PRES REMARKS
 
FRISCO SUNNY 31 15 52 NW15G28 30.30R  
SWANQUARTER NOT AVBL  
 

 
 
NCZ095-097-098-100-101-311500-  
SOUTHERN COAST  
 
CITY SKY/WX TMP DP RH WIND PRES REMARKS
 
BEAUFORT SUNNY 32 14 47 N14 30.34R  
CEDAR ISLAND NOT AVBL  
JACKSONVILLE SUNNY 32 12 43 N12 30.36R  
PINEY ISLAND N/A N/A N/A N/A MISG 30.33R  
WILMINGTON SUNNY 33 10 38 N12G20 30.37R  
 

 
 
NCZ011>013-027>030-043-044-078>080-089-090>093-098-311500-  
COASTAL PLAIN  
 
CITY SKY/WX TMP DP RH WIND PRES REMARKS
 
AHOSKIE SUNNY 28 12 51 NW5 30.37R  
CLINTON SUNNY 32 13 44 N6 30.37R  
ELIZABETHTOWN SUNNY 32 12 42 CALM 30.38R  
GOLDSBORO SUNNY 30 14 51 NW8 30.28F  
GREENVILLE SUNNY 32 12 43 NW8G16 30.37R  
HAVELOCK SUNNY 32 12 43 N16 30.35R  
KENANSVILLE SUNNY 32 9 37 NW8 30.38R  
KINSTON SUNNY 32 10 40 N10 30.37R  
NEW BERN SUNNY 33 12 41 N13 30.36R  
RICHLANDS SUNNY 32 10 40 NW9 30.38R  
ROCKY MOUNT SUNNY 32 9 38 NW13 30.37R  
WASHINGTON SUNNY 30 13 50 NW9 30.36R  
WHITEVILLE SUNNY 32 12 43 N3 30.37R  
 

 
 
AMZ130-135-150-152-154-156-158-170-250-252-270-ANZ085-086-088-633-658-670-311500-  
MARINE OBSERVATIONS  
 
STATION/POSITION TIME TEMP WIND PRES WAVE SWELL
 
AIR SEA DIR/SP/G HT/PER HT/PER  
(UTC) (F) (DEG/KT/KT) (MB) (FT/S) (FT/S)  
CHESAPEAKE LIGHT 1400 25 320/ 27/ 31 1026.6  
64 E VA BEACH 1400 29 48 320/ 27/ 35 1023.9 11/ 8  
DUCK 1400 27 40 330/ 24/ 29 1025.2  
2 E DUCK 1400 42 N/A 6/ 7  
10 NE DUCK 1400 43 N/A 7/ 7  
OREGON INLET 1400 28 40 320/ 21/ 29 1026.0  
13E OREGON INLT 1400 45 N/A 10/ 8 2/11  
HATTERAS CG 1400 31 40 330/ 21/ 27 1026.5  
DIAMOND BUOY 1400 34 61 340/ 27/ 33 1024.5 7/ 6 2/10  
17 S OCRACOKE NOT AVBL  
CAPE LOOKOUT 1400 32 340/ 18/ 21 1027.0  
BEAUFORT LAB 1400 32 45 340/ 13/ 20 1026.3  
27 SE WRIGHTSVLE NOT AVBL  
5 SE WRIGHTSVLE 1400 35 51 20/ 17/ 21 1028.2  
225 S CAPE HAT 1322 53 69 330/ 19/ 23 1023.8 14/ 9  
41 SE CHARLESTON 1400 45 67 20/ 17/ 23 1027.2 6/ 7  
 

 
 
CLICK HERE TO GO TO PREVIOUS BULLETINS.

The Nexlab NC Page Main Text Page